| time (UTC) | temp F | wind direction | speed knots | gust knots | rain 1hr in | rain 24hr in | rain mn in | humidity % | barometer mb |
| 20260904050606 | 65 | 307 | 0.9 | 2.6 | 0.00 | 0.00 | 0.00 | 69 | 1013.1 |
| 20260904050105 | 65 | 307 | 0.9 | 1.7 | 0.00 | 0.00 | 0.00 | 69 | 1013.1 |
| 20260904045608 | 65 | 307 | 0.9 | 2.6 | 0.00 | 0.00 | 0.00 | 68 | 1013.1 |
| 20260904044603 | 65 | 307 | 0.9 | 2.6 | 0.00 | 0.00 | 0.00 | 68 | 1013.1 |
| 20260904044104 | 65 | 307 | 0.9 | 2.6 | 0.00 | 0.00 | 0.00 | 67 | 1013.0 |
| 20260904043104 | 66 | 307 | 1.7 | 2.6 | 0.00 | 0.00 | 0.00 | 67 | 1012.9 |
| 20260904042604 | 66 | 308 | 0.9 | 2.6 | 0.00 | 0.00 | 0.00 | 66 | 1012.9 |
| 20260904042104 | 66 | 308 | 0.9 | 2.6 | 0.00 | 0.00 | 0.00 | 66 | 1012.9 |
| 20260904041604 | 66 | 308 | 1.7 | 2.6 | 0.00 | 0.00 | 0.00 | 66 | 1012.9 |
| 20260904041106 | 67 | 308 | 0.9 | 4.3 | 0.00 | 0.00 | 0.00 | 66 | 1012.7 |
| 20260904040604 | 67 | 308 | 0.9 | 4.3 | 0.00 | 0.00 | 0.00 | 65 | 1012.6 |
| 20260904040105 | 67 | 306 | 2.6 | 4.3 | 0.00 | 0.00 | 0.00 | 65 | 1012.6 |
| 20260904035604 | 67 | 296 | 1.7 | 2.6 | 0.00 | 0.00 | 0.00 | 64 | 1012.6 |
| 20260904035104 | 67 | 296 | 0.9 | 4.3 | 0.00 | 0.00 | 0.00 | 64 | 1012.5 |
| 20260904034604 | 67 | 296 | 1.7 | 4.3 | 0.00 | 0.00 | 0.00 | 64 | 1012.5 |
| 20260904034104 | 68 | 294 | 2.6 | 4.3 | 0.00 | 0.00 | 0.00 | 63 | 1012.5 |
| 20260904033604 | 68 | 292 | 1.7 | 4.3 | 0.00 | 0.00 | 0.00 | 62 | 1012.5 |
| 20260904033104 | 68 | 292 | 1.7 | 4.3 | 0.00 | 0.00 | 0.00 | 62 | 1012.5 |
| 20260904032604 | 68 | 291 | 1.7 | 2.6 | 0.00 | 0.00 | 0.00 | 61 | 1012.4 |
| 20260904032104 | 69 | 290 | 1.7 | 2.6 | 0.00 | 0.00 | 0.00 | 61 | 1012.4 |
| 20260904031604 | 69 | 290 | 0.9 | 2.6 | 0.00 | 0.00 | 0.00 | 60 | 1012.3 |
| 20260904031104 | 69 | 288 | 0.9 | 2.6 | 0.00 | 0.00 | 0.00 | 59 | 1012.2 |
| 20260904030104 | 69 | 277 | 1.7 | 2.6 | 0.00 | 0.00 | 0.00 | 58 | 1011.9 |
| 20260904025615 | 70 | 304 | 1.7 | 2.6 | 0.00 | 0.00 | 0.00 | 58 | 1011.9 |
| 20260904025104 | 70 | 295 | 0.9 | 2.6 | 0.00 | 0.00 | 0.00 | 57 | 1011.9 |
| 20260904024604 | 70 | 306 | 0.9 | 2.6 | 0.00 | 0.00 | 0.00 | 57 | 1011.9 |
| 20260904024104 | 70 | 299 | 0.9 | 2.6 | 0.00 | 0.00 | 0.00 | 56 | 1011.8 |
| 20260904023604 | 70 | 288 | 0.9 | 2.6 | 0.00 | 0.00 | 0.00 | 56 | 1011.9 |
| 20260904023104 | 71 | 264 | 0.9 | 1.7 | 0.00 | 0.00 | 0.00 | 55 | 1011.8 |
| 20260904022606 | 71 | 263 | 0.0 | 1.7 | 0.00 | 0.00 | 0.00 | 54 | 1011.8 |
| 20260904022104 | 72 | 263 | 0.9 | 2.6 | 0.00 | 0.00 | 0.00 | 53 | 1011.8 |
| 20260904021604 | 72 | 277 | 0.9 | 2.6 | 0.00 | 0.00 | 0.00 | 52 | 1011.9 |
| 20260904020105 | 74 | 243 | 0.9 | 2.6 | 0.00 | 0.00 | 0.00 | 49 | 1011.9 |
| 20260904015604 | 75 | 271 | 0.9 | 4.3 | 0.00 | 0.00 | 0.00 | 47 | 1011.9 |
| 20260904015104 | 76 | 270 | 1.7 | 4.3 | 0.00 | 0.00 | 0.00 | 45 | 1011.8 |
| 20260904014104 | 77 | 276 | 1.7 | 4.3 | 0.00 | 0.00 | 0.00 | 43 | 1011.7 |
| 20260904013606 | 77 | 234 | 0.9 | 6.1 | 0.00 | 0.00 | 0.00 | 42 | 1011.7 |
| 20260904013104 | 78 | 183 | 2.6 | 6.1 | 0.00 | 0.00 | 0.00 | 41 | 1011.7 |
| 20260904012603 | 78 | 219 | 2.6 | 6.1 | 0.00 | 0.00 | 0.00 | 40 | 1011.6 |
| 20260904011604 | 79 | 231 | 2.6 | 7.0 | 0.00 | 0.00 | 0.00 | 39 | 1011.5 |
| 20260904010608 | 80 | 240 | 2.6 | 6.1 | 0.00 | 0.00 | 0.00 | 37 | 1011.4 |
| 20260904010105 | 80 | 223 | 2.6 | 7.0 | 0.00 | 0.00 | 0.00 | 37 | 1011.4 |
| 20260904005610 | 80 | 248 | 4.3 | 7.8 | 0.00 | 0.00 | 0.00 | 36 | 1011.4 |
| 20260904005103 | 80 | 269 | 4.3 | 7.8 | 0.00 | 0.00 | 0.00 | 35 | 1011.4 |
| 20260904004604 | 81 | 245 | 5.2 | 7.8 | 0.00 | 0.00 | 0.00 | 33 | 1011.4 |
| 20260904004103 | 82 | 264 | 4.3 | 10.4 | 0.00 | 0.00 | 0.00 | 32 | 1011.4 |
| 20260904002104 | 82 | 254 | 5.2 | 12.2 | 0.00 | 0.00 | 0.00 | 31 | 1011.3 |
| 20260904001604 | 84 | 256 | 6.1 | 12.2 | 0.00 | 0.00 | 0.00 | 30 | 1011.3 |
| 20260904001103 | 83 | 210 | 4.3 | 7.8 | 0.00 | 0.00 | 0.00 | 30 | 1011.3 |
| 20260904000604 | 83 | 238 | 5.2 | 10.4 | 0.00 | 0.00 | 0.00 | 30 | 1011.3 |
| 20260903235104 | 84 | 253 | 4.3 | 8.7 | 0.00 | 0.00 | 0.00 | 28 | 1011.2 |
| 20260903234604 | 84 | 281 | 5.2 | 8.7 | 0.00 | 0.00 | 0.00 | 28 | 1011.2 |
| 20260903234104 | 84 | 265 | 5.2 | 7.8 | 0.00 | 0.00 | 0.00 | 28 | 1011.3 |
| 20260903233604 | 84 | 249 | 2.6 | 7.8 | 0.00 | 0.00 | 0.00 | 26 | 1011.3 |
| 20260903233104 | 84 | 264 | 5.2 | 7.8 | 0.00 | 0.00 | 0.00 | 26 | 1011.3 |
| 20260903232604 | 85 | 237 | 4.3 | 8.7 | 0.00 | 0.00 | 0.00 | 25 | 1011.4 |
| 20260903232104 | 85 | 259 | 4.3 | 8.7 | 0.00 | 0.00 | 0.00 | 26 | 1011.3 |
| 20260903231603 | 84 | 258 | 5.2 | 8.7 | 0.00 | 0.00 | 0.00 | 26 | 1011.5 |
| 20260903231104 | 85 | 257 | 5.2 | 8.7 | 0.00 | 0.00 | 0.00 | 25 | 1011.6 |
| 20260903230609 | 85 | 265 | 5.2 | 8.7 | 0.00 | 0.00 | 0.00 | 24 | 1011.7 |
| 20260903230104 | 85 | 226 | 5.2 | 7.8 | 0.00 | 0.00 | 0.00 | 25 | 1011.6 |
| 20260903225611 | 85 | 236 | 4.3 | 10.4 | 0.00 | 0.00 | 0.00 | 24 | 1011.6 |
| 20260903225104 | 85 | 282 | 5.2 | 10.4 | 0.00 | 0.00 | 0.00 | 24 | 1011.6 |
| 20260903224604 | 85 | 276 | 3.5 | 11.3 | 0.00 | 0.00 | 0.00 | 25 | 1011.7 |
| 20260903224103 | 85 | 252 | 5.2 | 11.3 | 0.00 | 0.00 | 0.00 | 25 | 1011.7 |
| 20260903223604 | 85 | 263 | 6.1 | 8.7 | 0.00 | 0.00 | 0.00 | 24 | 1011.8 |
| 20260903223104 | 85 | 254 | 3.5 | 8.7 | 0.00 | 0.00 | 0.00 | 24 | 1011.8 |
| 20260903222104 | 85 | 284 | 3.5 | 8.7 | 0.00 | 0.00 | 0.00 | 24 | 1011.9 |
| 20260903221104 | 84 | 280 | 4.3 | 8.7 | 0.00 | 0.00 | 0.00 | 25 | 1011.9 |
| 20260903220603 | 84 | 260 | 5.2 | 10.4 | 0.00 | 0.00 | 0.00 | 24 | 1012.0 |
| 20260903220105 | 84 | 263 | 5.2 | 10.4 | 0.00 | 0.00 | 0.00 | 24 | 1012.1 |
| 20260903215104 | 84 | 269 | 5.2 | 10.4 | 0.00 | 0.00 | 0.00 | 25 | 1012.2 |
| 20260903214104 | 84 | 265 | 5.2 | 10.4 | 0.00 | 0.00 | 0.00 | 24 | 1012.4 |
| 20260903213604 | 84 | 241 | 4.3 | 10.4 | 0.00 | 0.00 | 0.00 | 23 | 1012.5 |
| 20260903212603 | 84 | 284 | 5.2 | 10.4 | 0.00 | 0.00 | 0.00 | 24 | 1012.5 |
| 20260903212104 | 84 | 283 | 5.2 | 11.3 | 0.00 | 0.00 | 0.00 | 24 | 1012.5 |
| 20260903211604 | 83 | 303 | 5.2 | 11.3 | 0.00 | 0.00 | 0.00 | 23 | 1012.5 |
| 20260903211104 | 84 | 257 | 6.1 | 11.3 | 0.00 | 0.00 | 0.00 | 23 | 1012.5 |
| 20260903210609 | 84 | 270 | 3.5 | 7.8 | 0.00 | 0.00 | 0.00 | 24 | 1012.5 |
| 20260903210104 | 83 | 284 | 4.3 | 7.8 | 0.00 | 0.00 | 0.00 | 25 | 1012.5 |
| 20260903205617 | 83 | 272 | 3.5 | 10.4 | 0.00 | 0.00 | 0.00 | 25 | 1012.6 |
| 20260903205103 | 83 | 275 | 4.3 | 10.4 | 0.00 | 0.00 | 0.00 | 24 | 1012.6 |
| 20260903204603 | 82 | 284 | 4.3 | 10.4 | 0.00 | 0.00 | 0.00 | 26 | 1012.6 |
| 20260903204104 | 83 | 275 | 4.3 | 8.7 | 0.00 | 0.00 | 0.00 | 25 | 1012.8 |
| 20260903203105 | 82 | 312 | 4.3 | 7.8 | 0.00 | 0.00 | 0.00 | 25 | 1012.8 |
| 20260903202604 | 82 | 259 | 2.6 | 7.8 | 0.00 | 0.00 | 0.00 | 27 | 1012.9 |
| 20260903201604 | 81 | 270 | 2.6 | 7.8 | 0.00 | 0.00 | 0.00 | 27 | 1013.0 |
| 20260903201104 | 82 | 274 | 2.6 | 7.8 | 0.00 | 0.00 | 0.00 | 26 | 1013.0 |
| 20260903200105 | 81 | 235 | 2.6 | 7.8 | 0.00 | 0.00 | 0.00 | 27 | 1013.0 |
| 20260903195604 | 81 | 272 | 2.6 | 7.8 | 0.00 | 0.00 | 0.00 | 26 | 1013.0 |
| 20260903195104 | 81 | 298 | 2.6 | 7.8 | 0.00 | 0.00 | 0.00 | 29 | 1013.0 |
| 20260903194604 | 80 | 288 | 4.3 | 7.8 | 0.00 | 0.00 | 0.00 | 28 | 1013.1 |
| 20260903194103 | 80 | 284 | 1.7 | 7.0 | 0.00 | 0.00 | 0.00 | 26 | 1013.2 |
| 20260903193604 | 80 | 269 | 2.6 | 6.1 | 0.00 | 0.00 | 0.00 | 28 | 1013.3 |
| 20260903193104 | 80 | 299 | 2.6 | 6.1 | 0.00 | 0.00 | 0.00 | 28 | 1013.5 |
| 20260903192604 | 80 | 254 | 4.3 | 6.1 | 0.00 | 0.00 | 0.00 | 28 | 1013.5 |
| 20260903192104 | 79 | 311 | 1.7 | 6.1 | 0.00 | 0.00 | 0.00 | 28 | 1013.6 |
| 20260903191604 | 79 | 303 | 2.6 | 6.1 | 0.00 | 0.00 | 0.00 | 29 | 1013.6 |
| 20260903191104 | 79 | 286 | 1.7 | 6.1 | 0.00 | 0.00 | 0.00 | 28 | 1013.6 |
| 20260903190609 | 79 | 252 | 2.6 | 6.1 | 0.00 | 0.00 | 0.00 | 29 | 1013.7 |
| 20260903190104 | 78 | 291 | 0.9 | 7.8 | 0.00 | 0.00 | 0.00 | 28 | 1013.9 |
| 20260903185609 | 78 | 265 | 3.5 | 7.8 | 0.00 | 0.00 | 0.00 | 29 | 1014.1 |
| 20260903184604 | 77 | 275 | 1.7 | 6.1 | 0.00 | 0.00 | 0.00 | 31 | 1014.2 |
| 20260903184104 | 77 | 247 | 2.6 | 6.1 | 0.00 | 0.00 | 0.00 | 33 | 1014.2 |
| 20260903183604 | 76 | 280 | 0.9 | 5.2 | 0.00 | 0.00 | 0.00 | 32 | 1014.2 |
| 20260903183105 | 76 | 281 | 1.7 | 4.3 | 0.00 | 0.00 | 0.00 | 35 | 1014.2 |
| 20260903182604 | 76 | 270 | 1.7 | 6.1 | 0.00 | 0.00 | 0.00 | 35 | 1014.2 |
| 20260903182104 | 76 | 268 | 3.5 | 6.1 | 0.00 | 0.00 | 0.00 | 36 | 1014.2 |
| 20260903181604 | 75 | 285 | 0.9 | 4.3 | 0.00 | 0.00 | 0.00 | 37 | 1014.3 |
| 20260903181104 | 75 | 269 | 1.7 | 5.2 | 0.00 | 0.00 | 0.00 | 37 | 1014.3 |
| 20260903180604 | 75 | 286 | 1.7 | 5.2 | 0.00 | 0.00 | 0.00 | 38 | 1014.3 |
| 20260903180105 | 74 | 308 | 2.6 | 5.2 | 0.00 | 0.00 | 0.00 | 39 | 1014.2 |
| 20260903175604 | 74 | 293 | 1.7 | 5.2 | 0.00 | 0.00 | 0.00 | 39 | 1014.4 |
| 20260903175104 | 74 | 274 | 1.7 | 5.2 | 0.00 | 0.00 | 0.00 | 40 | 1014.4 |
| 20260903174604 | 74 | 270 | 1.7 | 5.2 | 0.00 | 0.00 | 0.00 | 39 | 1014.5 |
| 20260903174104 | 73 | 294 | 2.6 | 5.2 | 0.00 | 0.00 | 0.00 | 39 | 1014.5 |
| 20260903173604 | 73 | 283 | 1.7 | 5.2 | 0.00 | 0.00 | 0.00 | 39 | 1014.5 |
| 20260903173104 | 72 | 290 | 0.9 | 5.2 | 0.00 | 0.00 | 0.00 | 40 | 1014.5 |
| 20260903172104 | 72 | 283 | 2.6 | 4.3 | 0.00 | 0.00 | 0.00 | 40 | 1014.4 |
| 20260903171604 | 71 | 301 | 0.9 | 4.3 | 0.00 | 0.00 | 0.00 | 41 | 1014.4 |
| 20260903171104 | 71 | 269 | 0.9 | 2.6 | 0.00 | 0.00 | 0.00 | 42 | 1014.4 |
| 20260903170609 | 71 | 268 | 0.9 | 5.2 | 0.00 | 0.00 | 0.00 | 42 | 1014.5 |
| 20260903170105 | 70 | 305 | 1.7 | 5.2 | 0.00 | 0.00 | 0.00 | 41 | 1014.5 |
| 20260903165608 | 70 | 290 | 1.7 | 5.2 | 0.00 | 0.00 | 0.00 | 41 | 1014.5 |
| 20260903164604 | 69 | 271 | 1.7 | 2.6 | 0.00 | 0.00 | 0.00 | 41 | 1014.4 |
| 20260903163604 | 68 | 282 | 1.7 | 4.3 | 0.00 | 0.00 | 0.00 | 41 | 1014.4 |
| 20260903163104 | 68 | 299 | 0.9 | 2.6 | 0.00 | 0.00 | 0.00 | 39 | 1014.5 |
| 20260903162604 | 68 | 296 | 0.9 | 2.6 | 0.00 | 0.00 | 0.00 | 39 | 1014.4 |
| 20260903162104 | 67 | 296 | 0.9 | 2.6 | 0.00 | 0.00 | 0.00 | 40 | 1014.5 |
| 20260903161604 | 66 | 296 | 0.0 | 2.6 | 0.00 | 0.00 | 0.00 | 43 | 1014.5 |
| 20260903161103 | 66 | 296 | 1.7 | 4.3 | 0.00 | 0.00 | 0.00 | 45 | 1014.5 |
| 20260903160604 | 66 | 296 | 1.7 | 4.3 | 0.00 | 0.00 | 0.00 | 45 | 1014.6 |
| 20260903160105 | 66 | 310 | 0.9 | 4.3 | 0.00 | 0.00 | 0.00 | 44 | 1014.6 |
| 20260903155604 | 66 | 350 | 0.9 | 2.6 | 0.00 | 0.00 | 0.00 | 43 | 1014.7 |
| 20260903155104 | 65 | 39 | 0.0 | 0.9 | 0.00 | 0.00 | 0.00 | 38 | 1014.7 |
| 20260903154604 | 65 | 40 | 0.0 | 0.9 | 0.00 | 0.00 | 0.00 | 39 | 1014.7 |
| 20260903153104 | 64 | 40 | 0.9 | 2.6 | 0.00 | 0.00 | 0.00 | 40 | 1014.7 |
| 20260903152604 | 63 | 40 | 0.9 | 1.7 | 0.00 | 0.00 | 0.00 | 40 | 1014.7 |
| 20260903152104 | 63 | 40 | 0.0 | 0.9 | 0.00 | 0.00 | 0.00 | 41 | 1014.7 |
| 20260903151603 | 63 | 40 | 0.0 | 0.9 | 0.00 | 0.00 | 0.00 | 43 | 1014.7 |
| 20260903151104 | 63 | 40 | 0.0 | 0.9 | 0.00 | 0.00 | 0.00 | 46 | 1014.7 |
| 20260903150608 | 63 | 55 | 0.0 | 0.9 | 0.00 | 0.00 | 0.00 | 45 | 1014.7 |
| 20260903150105 | 63 | 55 | 0.0 | 0.9 | 0.00 | 0.00 | 0.00 | 41 | 1014.8 |
| 20260903145609 | 63 | 55 | 0.0 | 0.9 | 0.00 | 0.00 | 0.00 | 39 | 1014.7 |
| 20260903145104 | 62 | 55 | 0.0 | 1.7 | 0.00 | 0.00 | 0.00 | 38 | 1014.6 |
| 20260903144604 | 61 | 55 | 0.0 | 1.7 | 0.00 | 0.00 | 0.00 | 38 | 1014.6 |
| 20260903144104 | 60 | 55 | 0.9 | 1.7 | 0.00 | 0.00 | 0.00 | 41 | 1014.4 |
| 20260903143604 | 60 | 56 | 0.0 | 0.9 | 0.00 | 0.00 | 0.00 | 43 | 1014.4 |
| 20260903142603 | 58 | 56 | 0.0 | 0.9 | 0.00 | 0.00 | 0.00 | 47 | 1014.3 |
| 20260903142103 | 58 | 56 | 0.0 | 0.0 | 0.00 | 0.00 | 0.00 | 47 | 1014.2 |
| 20260903141604 | 57 | 56 | 0.0 | 0.9 | 0.00 | 0.00 | 0.00 | 47 | 1014.2 |
| 20260903141104 | 57 | 56 | 0.0 | 0.9 | 0.00 | 0.00 | 0.00 | 46 | 1014.2 |
| 20260903135605 | 56 | 56 | 0.0 | 1.7 | 0.00 | 0.00 | 0.00 | 47 | 1014.2 |
| 20260903135105 | 57 | 57 | 0.0 | 1.7 | 0.00 | 0.00 | 0.00 | 48 | 1014.0 |
| 20260903134605 | 56 | 155 | 0.9 | 1.7 | 0.00 | 0.00 | 0.00 | 49 | 1013.9 |
| 20260903134104 | 57 | 155 | 0.9 | 1.7 | 0.00 | 0.00 | 0.00 | 51 | 1013.7 |
| 20260903133604 | 57 | 155 | 0.0 | 1.7 | 0.00 | 0.00 | 0.00 | 51 | 1013.7 |
| 20260903133104 | 57 | 155 | 0.9 | 1.7 | 0.00 | 0.00 | 0.00 | 51 | 1013.6 |
| 20260903132603 | 57 | 155 | 0.9 | 1.7 | 0.00 | 0.00 | 0.00 | 51 | 1013.6 |
| 20260903132104 | 57 | 155 | 0.9 | 1.7 | 0.00 | 0.00 | 0.00 | 51 | 1013.6 |
| 20260903131604 | 57 | 155 | 0.9 | 1.7 | 0.00 | 0.00 | 0.00 | 50 | 1013.7 |
| 20260903131104 | 57 | 155 | 0.9 | 1.7 | 0.00 | 0.00 | 0.00 | 51 | 1013.6 |
| 20260903130105 | 57 | 155 | 0.9 | 1.7 | 0.00 | 0.00 | 0.00 | 49 | 1013.6 |
| 20260903125609 | 57 | 155 | 0.9 | 1.7 | 0.00 | 0.00 | 0.00 | 51 | 1013.7 |
| 20260903125104 | 57 | 155 | 0.9 | 1.7 | 0.00 | 0.00 | 0.00 | 51 | 1013.7 |
| 20260903124604 | 57 | 155 | 0.9 | 1.7 | 0.00 | 0.00 | 0.00 | 50 | 1013.7 |
| 20260903124103 | 57 | 155 | 0.9 | 1.7 | 0.00 | 0.00 | 0.00 | 51 | 1013.7 |
| 20260903123603 | 57 | 155 | 0.9 | 1.7 | 0.00 | 0.00 | 0.00 | 51 | 1013.7 |
| 20260903123104 | 57 | 155 | 0.9 | 1.7 | 0.00 | 0.00 | 0.00 | 51 | 1013.8 |
| 20260903122104 | 56 | 155 | 0.9 | 1.7 | 0.00 | 0.00 | 0.00 | 53 | 1013.8 |
| 20260903121604 | 56 | 155 | 0.9 | 1.7 | 0.00 | 0.00 | 0.00 | 53 | 1013.7 |
| 20260903121104 | 56 | 155 | 0.9 | 1.7 | 0.00 | 0.00 | 0.00 | 53 | 1013.8 |
| 20260903120604 | 56 | 155 | 0.9 | 1.7 | 0.00 | 0.00 | 0.00 | 53 | 1013.8 |
| 20260903115610 | 57 | 155 | 0.9 | 0.9 | 0.00 | 0.00 | 0.00 | 54 | 1014.0 |
| 20260903115104 | 57 | 155 | 0.0 | 0.9 | 0.00 | 0.00 | 0.00 | 54 | 1014.1 |
| 20260903114605 | 57 | 155 | 0.0 | 0.9 | 0.00 | 0.00 | 0.00 | 54 | 1014.1 |
| 20260903114104 | 57 | 155 | 0.0 | 1.7 | 0.00 | 0.00 | 0.00 | 51 | 1014.1 |
| 20260903113104 | 57 | 155 | 0.9 | 1.7 | 0.00 | 0.00 | 0.00 | 47 | 1014.2 |
| 20260903112603 | 57 | 155 | 0.9 | 1.7 | 0.00 | 0.00 | 0.00 | 47 | 1014.2 |
| 20260903111103 | 57 | 155 | 0.0 | 0.9 | 0.00 | 0.00 | 0.00 | 47 | 1014.3 |
| 20260903110606 | 57 | 155 | 0.0 | 2.6 | 0.00 | 0.00 | 0.00 | 48 | 1014.3 |
| 20260903105609 | 58 | 153 | 1.7 | 2.6 | 0.00 | 0.00 | 0.00 | 49 | 1014.3 |
| 20260903105104 | 58 | 150 | 0.0 | 1.7 | 0.00 | 0.00 | 0.00 | 47 | 1014.4 |
| 20260903104604 | 58 | 150 | 0.0 | 1.7 | 0.00 | 0.00 | 0.00 | 47 | 1014.3 |
| 20260903104104 | 58 | 150 | 0.9 | 1.7 | 0.00 | 0.00 | 0.00 | 49 | 1014.3 |
| 20260903103604 | 59 | 150 | 0.0 | 0.0 | 0.00 | 0.00 | 0.00 | 56 | 1014.4 |
| 20260903103104 | 59 | 150 | 0.0 | 0.9 | 0.00 | 0.00 | 0.00 | 55 | 1014.5 |
| 20260903102603 | 59 | 150 | 0.0 | 1.7 | 0.00 | 0.00 | 0.00 | 51 | 1014.5 |
| 20260903102103 | 59 | 150 | 0.0 | 1.7 | 0.00 | 0.00 | 0.00 | 47 | 1014.5 |
| 20260903101604 | 59 | 150 | 0.9 | 1.7 | 0.00 | 0.00 | 0.00 | 46 | 1014.5 |
| 20260903101104 | 60 | 150 | 0.9 | 0.9 | 0.00 | 0.00 | 0.00 | 44 | 1014.6 |
| 20260903100604 | 60 | 150 | 0.0 | 0.9 | 0.00 | 0.00 | 0.00 | 44 | 1014.5 |
| 20260903100105 | 60 | 150 | 0.0 | 0.9 | 0.00 | 0.00 | 0.00 | 44 | 1014.6 |
| 20260903095604 | 60 | 150 | 0.0 | 0.9 | 0.00 | 0.00 | 0.00 | 44 | 1014.6 |
| 20260903094604 | 60 | 150 | 0.9 | 0.9 | 0.00 | 0.00 | 0.00 | 45 | 1014.5 |
| 20260903094103 | 60 | 150 | 0.9 | 0.9 | 0.00 | 0.00 | 0.00 | 45 | 1014.6 |
| 20260903093604 | 60 | 150 | 0.9 | 0.9 | 0.00 | 0.00 | 0.00 | 45 | 1014.7 |
| 20260903093104 | 60 | 150 | 0.0 | 0.9 | 0.00 | 0.00 | 0.00 | 46 | 1014.7 |
| 20260903091604 | 61 | 150 | 0.0 | 0.0 | 0.00 | 0.00 | 0.00 | 47 | 1014.7 |
| 20260903091105 | 61 | 150 | 0.0 | 0.0 | 0.00 | 0.00 | 0.00 | 47 | 1014.7 |
| 20260903090606 | 61 | 150 | 0.0 | 0.9 | 0.00 | 0.00 | 0.00 | 47 | 1014.7 |
| 20260903090105 | 61 | 150 | 0.0 | 1.7 | 0.00 | 0.00 | 0.00 | 47 | 1014.6 |
| 20260903085608 | 61 | 150 | 0.0 | 1.7 | 0.00 | 0.00 | 0.00 | 47 | 1014.6 |
| 20260903085104 | 61 | 150 | 0.9 | 1.7 | 0.00 | 0.00 | 0.00 | 47 | 1014.6 |
| 20260903084108 | 61 | 150 | 0.0 | 0.9 | 0.00 | 0.00 | 0.00 | 48 | 1014.8 |
| 20260903083104 | 62 | 150 | 0.0 | 1.7 | 0.00 | 0.00 | 0.00 | 47 | 1014.9 |
| 20260903082604 | 62 | 150 | 0.9 | 1.7 | 0.00 | 0.00 | 0.00 | 47 | 1014.9 |
| 20260903082104 | 62 | 150 | 0.9 | 1.7 | 0.00 | 0.00 | 0.00 | 47 | 1015.0 |
| 20260903081604 | 62 | 150 | 0.0 | 1.7 | 0.00 | 0.00 | 0.00 | 46 | 1015.1 |
| 20260903081122 | 62 | 150 | 0.9 | 1.7 | 0.00 | 0.00 | 0.00 | 45 | 1015.1 |
| 20260903080131 | 63 | 150 | 0.9 | 1.7 | 0.00 | 0.00 | 0.00 | 44 | 1015.1 |
| 20260903075604 | 63 | 150 | 0.9 | 1.7 | 0.00 | 0.00 | 0.00 | 44 | 1015.1 |
| 20260903075104 | 63 | 150 | 0.0 | 1.7 | 0.00 | 0.00 | 0.00 | 43 | 1015.2 |
| 20260903074604 | 64 | 150 | 0.9 | 2.6 | 0.00 | 0.00 | 0.00 | 43 | 1015.2 |
| 20260903073604 | 63 | 150 | 1.7 | 1.7 | 0.00 | 0.00 | 0.00 | 45 | 1015.1 |
| 20260903073104 | 63 | 150 | 0.9 | 1.7 | 0.00 | 0.00 | 0.00 | 48 | 1015.1 |
| 20260903072604 | 63 | 150 | 0.0 | 0.9 | 0.00 | 0.00 | 0.00 | 49 | 1015.1 |
| 20260903072104 | 63 | 150 | 0.9 | 1.7 | 0.00 | 0.00 | 0.00 | 49 | 1015.1 |
| 20260903071604 | 63 | 150 | 0.0 | 1.7 | 0.00 | 0.00 | 0.00 | 49 | 1015.1 |
| 20260903071104 | 63 | 150 | 0.0 | 0.9 | 0.00 | 0.00 | 0.00 | 48 | 1015.1 |
| 20260903070605 | 63 | 150 | 0.0 | 1.7 | 0.00 | 0.00 | 0.00 | 48 | 1015.1 |
| 20260903070104 | 63 | 150 | 0.9 | 1.7 | 0.00 | 0.00 | 0.00 | 49 | 1015.1 |
| 20260903065607 | 63 | 150 | 0.9 | 1.7 | 0.00 | 0.00 | 0.00 | 49 | 1015.1 |
| 20260903065104 | 64 | 150 | 0.9 | 0.9 | 0.00 | 0.00 | 0.00 | 48 | 1015.2 |
| 20260903064604 | 64 | 150 | 0.0 | 1.7 | 0.00 | 0.00 | 0.00 | 47 | 1015.1 |
| 20260903064104 | 64 | 150 | 0.9 | 1.7 | 0.00 | 0.00 | 0.00 | 48 | 1015.2 |
| 20260903063604 | 64 | 150 | 0.0 | 1.7 | 0.00 | 0.00 | 0.00 | 50 | 1015.2 |
| 20260903063104 | 64 | 150 | 0.9 | 1.7 | 0.00 | 0.00 | 0.00 | 50 | 1015.2 |
| 20260903062604 | 64 | 150 | 0.9 | 1.7 | 0.00 | 0.00 | 0.00 | 50 | 1015.3 |
| 20260903062104 | 65 | 150 | 0.9 | 1.7 | 0.00 | 0.00 | 0.00 | 50 | 1015.3 |
| 20260903061604 | 65 | 150 | 0.0 | 1.7 | 0.00 | 0.00 | 0.00 | 49 | 1015.3 |
| 20260903061104 | 65 | 150 | 0.9 | 1.7 | 0.00 | 0.00 | 0.00 | 50 | 1015.3 |
| 20260903060605 | 65 | 150 | 0.0 | 0.9 | 0.00 | 0.00 | 0.00 | 50 | 1015.3 |
| 20260903054604 | 65 | 150 | 0.0 | 1.7 | 0.00 | 0.00 | 0.00 | 50 | 1015.5 |
| 20260903054104 | 65 | 150 | 0.9 | 1.7 | 0.00 | 0.00 | 0.00 | 50 | 1015.5 |
| 20260903053603 | 66 | 150 | 0.0 | 0.9 | 0.00 | 0.00 | 0.00 | 50 | 1015.6 |
| 20260903053103 | 66 | 150 | 0.0 | 0.0 | 0.00 | 0.00 | 0.00 | 50 | 1015.5 |
| 20260903052607 | 66 | 150 | 0.0 | 1.7 | 0.00 | 0.00 | 0.00 | 50 | 1015.5 |
| 20260903052104 | 66 | 150 | 0.0 | 2.6 | 0.00 | 0.00 | 0.00 | 50 | 1015.6 |
| 20260903051604 | 66 | 150 | 0.9 | 2.6 | 0.00 | 0.00 | 0.00 | 50 | 1015.5 |
| 20260903051105 | 66 | 150 | 0.9 | 2.6 | 0.00 | 0.00 | 0.00 | 50 | 1015.5 |